Regional Weather Roundup
Issued by NWS

Home | Current Version | Previous Version | Text Only | Print | Product List | Glossary On
Versions: 1 2 3 4 5 6 7 8 9 10 11 12 13 14 15 16 17 18 19 20 21 22 23 24 25 26 27 28 29 30 31 32 33 34 35 36 37 38 39 40 41 42 43 44 45 46 47 48 49 50
000
ASUS43 KDMX 040307
RWRIA

WEATHER ROUNDUP FOR IOWA
NATIONAL WEATHER SERVICE DES MOINES IA
1000 PM CDT SUN MAY 03 2015

NOTE: "FAIR" INDICATES FEW OR NO CLOUDS BELOW 12,000 FEET WITH NO
SIGNIFICANT WEATHER AND/OR OBSTRUCTIONS TO VISIBILITY.

* - THESE STATIONS ARE NOT NWS STATIONS...THUS NOT UNDER NWS
QUALITY CONTROL.  THEY ALSO DO NOT REPORT WEATHER SUCH
AS PRECIPITATION OR FOG.

IAZ001>003-012>014-020>022-031>034-043>046-040400-
   NORTHWEST IOWA

CITY           SKY/WX    TMP DP  RH WIND       PRES   REMARKS
CARROLL *      MOCLDY    68  55  64 N14G21    29.82R
CHEROKEE *     CLOUDY    68  45  42 N12       29.89R
DENISON *      PTCLDY    70  54  56 NE17      29.81S
LE MARS *      MOCLDY    66  39  37 N12G18    29.92R
ORANGE CITY *  CLEAR     63  37  39 NE13G18   29.91R
SHELDON *      CLEAR     63  41  45 NE14      29.91R
SIOUX CITY     CLOUDY    71  39  31 NE14G22   29.90R
SPENCER        MOCLDY    63  46  54 N20       29.89R
STORM LAKE *   CLOUDY    68  48  49 NE24G32   29.89R
$$

IAZ055>058-069>071-079>083-090>094-040400-
   SOUTHWEST IOWA

CITY           SKY/WX    TMP DP  RH WIND       PRES   REMARKS
ATLANTIC *     CLEAR     70  59  68 NW7G14    29.82R
AUDUBON *      CLEAR     66  61  82 NW6       29.84R
CLARINDA *     MOCLDY    70  55  60 S8        29.82R
COUNCIL BLFS * MOCLDY    72  59  64 NW12      29.84R
CRESTON *      CLEAR     72  59  64 S14       29.80S
HARLAN  *      PTCLDY    66  66 100 CALM      29.84R
LAMONI         CLOUDY    74  58  57 S14       29.83R
RED OAK *      CLOUDY    73  54  49 N20G28    29.78R
SHENANDOAH *   MOCLDY    75  59  57 S18G32    29.78R
$$

IAZ047>049-059>061-072>074-084-040400-
   CENTRAL IOWA

CITY           SKY/WX    TMP DP  RH WIND       PRES   REMARKS
AMES           CLOUDY    70  55  59 NE13G32   29.85R
ANKENY *       CLEAR     66  59  77 NE5       29.82R
CHARITON *     CLOUDY    72  59  64 S9        29.84R
DES MOINES     CLOUDY    74  57  55 SE6       29.81R
GRINNELL*      MOCLDY    68  57  68 SE5       29.84S
KNOXVILLE *    CLOUDY    72  57  60 S6        29.83R
MARSHALLTOWN   CLOUDY    69  53  56 N25G31    29.86R
PELLA *        MOCLDY    72  63  73 S7        29.85R
PERRY *          N/A     70  57  64 E3        29.81R
$$

IAZ004>006-015-016-023>025-035-036-040400-
   NORTH CENTRAL IOWA

CITY           SKY/WX    TMP DP  RH WIND       PRES   REMARKS
ALGONA *       PTCLDY    63  55  77 NE16G22   29.85F
CLARION *      MOCLDY    63  57  82 N7        29.86R
ESTHERVILLE    MOCLDY    63  46  54 N17       29.90R
FORT DODGE *   CLOUDY    63  55  77 E12       29.83F
MASON CITY     CLOUDY    62  59  90 N12       29.88R
FOREST CITY *  CLEAR     61  55  82 NE9G20    29.86R
IOWA FALLS *   HVY RAIN  59  55  88 E7        29.87R
$$

IAZ007>011-017>019-026>030-037>042-050>054-066-040400-
   NORTHEAST IOWA

CITY           SKY/WX    TMP DP  RH WIND       PRES   REMARKS
CEDAR RAPIDS   CLOUDY    68  57  68 SE8       29.85R
CHARLES CITY * LGT RAIN  59  59 100 E10G17    29.85F
CLINTON *      PTCLDY    66  59  77 S7        29.91R
DECORAH *        N/A     61  55  82 NW13G36   29.92R HAZE
DUBUQUE        CLOUDY    64  59  83 S7        29.88R
MONTICELLO *   MOCLDY    68  64  88 SE7       29.86R
OELWEIN *      CLOUDY    61  55  82 NW22G39   29.93R HAZE
WATERLOO       LGT RAIN  62  56  80 N17G26    29.86F
$$

IAZ064-065-067-068-078-040400-
   EAST CENTRAL IOWA

CITY           SKY/WX    TMP DP  RH WIND       PRES   REMARKS
DAVENPORT      MOCLDY    75  53  46 S12       29.90R
IOWA CITY      MOCLDY    71  57  61 S9        29.87R
MT. PLEASANT * CLOUDY    72  55  56 S9        29.88R
MUSCATINE *    CLOUDY    72  57  60 S7        29.88R
QUAD CITIES    MOCLDY    74  54  49 S8        29.88R
$$

IAZ062-063-075>077-085>089-095>099-040400-
   SOUTHEAST IOWA

CITY           SKY/WX    TMP DP  RH WIND       PRES   REMARKS
BURLINGTON     CLEAR     70  56  61 S7        29.89R
FAIRFIELD *    MOCLDY    70  57  64 S6        29.87R
FORT MADISON * CLEAR     72  55  56 S6        29.90R
KEOKUK *       CLEAR     73  55  53 S10       29.87R
OSKALOOSA *      N/A     70  57  64 S10       29.85R
CENTERVILLE *  CLEAR     72  59  64 S8        29.88R
WASHINGTON *   CLOUDY    72  61  68 S7        29.88R
$$

ABBREVIATIONS USED IN REMARKS
   TC - TEMPERATURES IN CELSIUS
  WCI - WIND CHILL INDEX
   HX - HEAT INDEX
  VSB - VISIBILITY
$$



USA.gov is the U.S. government's official web portal to all federal, state and local government web resources and services.